FREGAT DEB, 45971

Orbit data source: Space-Track

FREGAT DEB, 45971 is space debris in LEO originally from a launch on Mon, 18 Jul 2011 UTC launched from the Tyuratam Missile And Space Complex (TTMTR). Debris objects in space refer to the collection of defunct objects orbiting the Earth. Examples of debris include non-operational satellites, rocket bodies, and fragments generated from explosions, collisions, or faulty payload assembly.

Loading next visibility...
Identifier
45971, 2011-037GC
Orbit
LEO
Country
Flag of CISCIS
Related business
Manufacturer
Lavochkin
Mission
Spacecraft
Bus & Motor
Unknown
Mass
Unknown
Launch date (UTC)
2011-07-18 (14 years ago)
Launch vehicle
Unknown
Launch site
Tyuratam Missile And Space Complex (TTMTR)
Object type
Payload
Rocket body
Debris
Shape & HBR
Unknown shape, 0.1 m
Radar Cross Section
Small (<0.1 m²)

Expand to show TLE details & history
Last TLE update: 2 days ago

TLE from 2 days ago
0 FREGAT DEB
1 45971U 11037GC  25354.00238533  .00018076  00000-0  17147-2 0  9995
2 45971  51.4572 254.8134 1158853  85.6734 287.5396 12.97492367245374
Epoch: 2025-12-20T00:03Z
TLE epoch observation values (Epoch: 2025-12-20T00:03:26.092Z)
Latitude
Longitude
165.11924°
Altitude
1,103.079 km
Speed
7.382 km/s
True Right ascension
16h 59m 15s
True Declination
0° 00' 00"
Sunlit
Object was in daylight at epoch
Visualization orbit readout
Latitude
Unknown
Longitude
Unknown
Altitude
Unknown
Speed
Unknown
Apparent Right ascension
Unknown
Apparent Declination
Unknown
Sunlit
N/A
Visualization observer readout
Local Sidereal Time
18:38:05
Azimuth
Unknown
Elevation
Unknown
Doppler factor
Unknown
Orbital elements
Apogee altitude
2,159.007 km
Perigee altitude
385.833 km
Semi-major axis
7,650.557 km
Eccentricity
0.11589
Inclination
51.4572°
RAAN
254.8134°
Arg. of periapsis
85.6734°
True anomaly
274.41689°
Mean anomaly
287.5396°
Eccentric anomaly
281.02235°
Mean motion
3.24342 °/min
Orbital period
110.99 mins
BSTAR
0.0017147
Loading maneuver chart data...
Computing Atmospheric mass density...
Loading historical data...
Loading historical data...
Loading historical data...
Loading historical data...
Loading historical data...
Loading historical data...
Loading historical data...

Documentation

Showing up to 5 results
|